Wind_Speed
17 16 15 15 16 16 15 14 13 13 14 16 15 15 16 16 15 15 15 15 15 15 14 13 12 12 12 12 12 11 10 9 9 9 8 9 9 8 8 8 9 9 8 8
17 17 15 15 15 15 15 14 13 13 14 15 16 16 17 16 16 15 16 17 17 15 15 14 14 13 12 12 12 11 11 10 10 10 9 9 9 9 10 10 9 9 9 10
17 15 16 16 15 15 15 14 13 13 16 17 19 19 18 18 16 16 16 18 18 17 14 13 14 14 14 12 12 12 12 12 12 10 11 11 11 11 11 11 11 10 10 10
17 16 16 16 15 16 15 15 14 15 16 18 19 19 19 19 18 18 18 19 19 18 17 15 15 14 14 13 13 13 12 13 12 11 12 12 12 12 12 13 13 12 12 11
17 16 16 16 15 15 15 16 16 16 17 19 20 21 20 20 19 20 20 20 19 18 17 15 15 15 15 14 14 13 14 14 14 13 14 14 14 14 14 15 15 15 14 13
17 17 17 16 15 17 17 18 19 19 20 21 20 21 21 20 19 19 20 20 19 18 18 17 16 16 16 15 15 14 15 14 15 15 15 16 16 16 16 16 16 16 15 15
18 17 17 17 17 17 19 19 20 21 22 22 20 20 21 21 20 20 21 21 19 19 20 20 17 17 17 16 16 16 16 16 16 16 17 17 18 18 18 18 17 16 16 16
17 17 17 18 19 19 20 21 22 22 23 21 21 22 21 21 19 19 20 21 21 20 20 21 20 19 18 18 18 18 17 17 17 17 18 19 20 20 20 19 18 18 17 17
17 17 18 19 18 19 20 22 22 23 23 22 22 22 22 22 21 20 21 22 22 21 20 20 21 20 19 19 19 19 19 19 19 20 20 20 20 21 21 20 20 19 19 19
18 17 18 19 19 20 21 22 23 23 24 24 23 23 23 22 21 22 23 22 22 22 21 21 22 22 21 20 20 21 21 21 21 21 22 21 21 21 21 20 20 20 20 21
19 18 18 20 21 21 21 21 23 24 25 25 24 24 23 21 21 21 21 22 22 22 21 21 22 24 24 22 22 22 22 23 23 23 22 22 22 22 21 21 21 21 21 21
18 19 20 21 21 21 22 22 23 24 24 24 25 25 22 22 22 21 20 21 21 22 22 22 23 24 23 22 23 23 24 24 24 23 22 22 22 21 21 20 20 20 21 20
20 20 21 22 22 22 22 22 23 25 25 25 25 25 24 23 23 23 23 23 23 23 23 24 23 24 23 23 24 25 25 25 24 23 23 22 22 22 21 21 21 21 21 20
21 22 22 23 23 23 23 23 23 25 25 25 26 26 24 24 24 24 24 24 24 24 23 24 24 24 24 24 25 25 26 25 25 24 23 22 22 22 22 22 22 22 22 21
22 23 22 23 24 24 24 24 25 25 26 27 26 26 25 25 26 25 26 25 25 24 24 24 24 25 25 25 26 25 26 25 24 24 23 23 23 23 23 23 23 23 23 23
20 21 21 22 23 23 23 24 25 27 27 27 27 27 27 27 27 26 26 27 25 25 25 26 26 26 26 27 26 26 26 25 25 24 25 25 24 24 24 23 23 23 23 24
19 19 20 21 22 23 23 23 25 25 26 27 28 27 27 27 28 27 27 27 27 26 26 27 27 28 28 28 27 27 26 26 25 24 25 25 26 25 25 25 25 24 25 25
18 19 20 21 22 23 22 23 23 24 25 26 27 26 26 27 26 27 27 26 26 27 27 27 27 28 28 28 27 27 26 26 26 26 25 25 26 25 25 25 25 25 25 25
19 20 21 21 22 22 21 21 23 23 24 25 26 26 27 27 27 27 27 26 26 27 28 28 28 29 28 28 27 26 26 26 26 26 27 27 27 27 26 25 25 26 26 26
21 21 22 22 22 22 21 21 22 23 25 25 26 26 26 26 26 27 27 27 27 27 28 28 28 28 28 28 28 28 27 26 27 27 26 26 27 27 27 27 26 26 27 27
22 22 22 22 22 22 20 19 20 22 23 24 25 25 25 25 25 25 26 27 27 27 27 27 27 27 27 27 27 27 26 26 27 27 27 26 27 28 28 28 27 27 27 26
22 23 22 22 22 21 21 20 21 22 22 23 24 24 24 24 24 25 25 26 26 25 25 26 27 26 26 26 26 27 26 26 27 27 27 26 26 28 29 29 28 27 27 26
22 23 22 22 22 22 22 22 22 22 22 22 23 23 24 24 24 25 25 25 25 26 26 27 27 27 26 25 25 25 24 25 25 25 25 25 26 27 28 29 29 27 27 27
23 23 23 22 21 22 22 22 21 21 21 22 23 24 24 24 25 26 26 26 26 27 27 26 27 27 26 25 25 24 24 24 25 26 25 26 26 27 28 28 28 28 28 27
23 24 24 24 23 23 23 23 22 22 22 22 22 23 23 23 24 25 26 26 26 26 26 25 26 26 26 25 25 25 25 26 26 26 27 27 28 29 29 29 28 27 28 28
21 23 24 24 24 24 23 23 22 22 22 21 21 22 22 23 23 24 25 25 25 25 25 25 25 26 26 26 26 26 27 26 27 27 27 27 27 27 27 27 27 27 26 27
Wind_Direction
225 224 222 221 221 223 222 226 229 234 239 244 250 253 257 265 269 276 280 286 293 297 305 309 311 313 313 315 315 314 309 312 315 316 319 325 326 328 324 321 326 328 328 328
223 222 223 222 221 222 226 232 237 235 234 241 245 248 252 257 265 274 281 282 287 291 298 302 305 305 306 306 308 308 305 304 304 305 308 314 317 317 319 323 322 323 325 324
223 220 220 220 220 222 227 230 232 234 235 242 245 246 248 251 260 269 274 276 280 286 291 293 298 301 307 305 306 305 302 301 300 298 301 304 307 307 310 315 318 316 314 317
221 215 217 221 223 226 228 226 232 233 236 242 248 251 249 254 258 265 271 273 277 280 287 287 289 295 298 299 300 298 297 299 298 294 295 297 300 302 304 306 307 307 307 310
217 215 220 226 228 227 226 229 235 235 241 247 249 253 253 255 257 262 267 273 275 279 278 279 285 290 292 293 292 291 292 294 292 288 290 292 294 297 300 301 301 299 298 301
216 218 223 226 227 227 228 229 235 239 242 245 249 253 251 253 259 262 264 272 272 274 275 278 282 286 288 286 287 288 289 290 290 289 289 289 289 291 294 298 298 295 293 295
215 217 222 226 229 230 232 233 236 238 242 244 245 250 253 255 259 262 268 270 270 271 274 277 279 283 285 284 281 282 283 285 285 287 287 286 286 286 288 292 293 294 293 293
218 218 224 228 230 232 235 235 238 242 246 248 246 251 254 259 264 268 270 268 270 274 277 278 280 281 281 283 282 280 280 280 281 284 284 282 282 283 284 286 288 290 292 291
229 226 230 231 232 234 235 237 241 246 249 251 252 256 257 257 262 266 270 270 271 271 273 275 275 277 279 281 283 284 280 279 280 280 282 281 280 280 280 281 284 285 286 287
239 235 230 232 235 238 239 241 244 245 248 252 255 258 261 262 262 266 268 268 268 269 269 271 274 277 280 280 282 283 281 279 279 279 280 281 281 278 277 278 279 281 282 283
245 242 237 234 235 238 238 240 244 246 248 253 256 260 263 264 262 264 266 268 270 270 272 274 275 277 279 280 280 279 279 280 280 279 280 280 281 280 278 277 276 277 279 281
251 246 244 241 239 243 244 245 245 245 247 252 256 260 262 262 263 263 267 271 271 273 276 276 277 277 279 280 282 282 282 281 280 279 278 278 278 279 279 276 274 276 277 278
252 250 247 243 242 244 244 243 245 247 250 252 255 260 263 265 264 266 270 274 275 275 276 277 278 278 277 278 282 282 281 279 279 279 278 276 275 276 278 275 273 274 275 276
250 252 250 247 245 245 246 247 247 249 251 253 256 260 261 263 264 268 270 272 274 275 276 277 277 278 276 276 280 279 280 279 278 277 274 272 273 274 275 275 273 273 275 276
249 252 251 249 249 250 251 250 250 251 253 255 258 261 261 262 263 265 268 270 272 275 275 276 278 278 277 278 280 279 277 279 279 276 273 271 270 271 272 272 272 273 274 274
250 247 246 248 250 251 255 254 254 255 255 256 259 260 262 263 264 267 269 271 274 277 279 278 279 280 280 281 282 281 278 278 279 277 272 270 269 270 271 271 272 272 272 272
250 248 248 249 251 253 254 255 254 255 254 256 259 261 262 264 266 268 270 271 272 275 278 280 280 280 280 279 279 280 280 280 277 274 272 271 270 270 270 271 271 270 272 271
253 252 252 254 255 257 258 254 253 254 255 257 258 262 263 266 267 270 272 272 272 274 276 278 280 280 279 278 279 279 280 280 278 275 272 271 270 269 270 271 272 273 272 270
255 255 256 258 258 259 257 255 254 253 254 259 262 266 269 270 270 272 273 273 273 273 274 275 277 279 278 279 281 280 279 281 281 279 274 269 268 268 269 269 270 272 273 273
257 257 259 260 261 258 258 254 256 255 256 260 264 268 272 270 269 271 273 274 275 273 275 277 278 279 277 279 280 279 278 279 280 279 274 269 269 268 267 269 269 271 274 274
259 259 260 261 263 264 264 262 263 260 262 263 266 267 271 270 271 272 274 276 277 276 276 276 277 277 277 278 279 280 279 279 281 279 275 273 271 269 268 268 271 272 273 273
261 261 261 262 263 264 266 269 270 269 268 268 269 269 269 270 272 276 278 278 278 279 277 276 277 277 278 278 279 279 280 281 282 282 278 276 274 270 270 269 270 271 273 273
261 264 265 265 265 266 268 271 273 269 269 271 273 273 274 274 274 276 280 280 279 278 278 277 278 278 279 279 279 279 280 282 284 285 281 280 278 274 272 272 269 269 271 272
261 262 265 266 265 268 270 272 273 272 272 272 273 275 277 276 275 276 278 280 279 279 279 278 277 278 278 279 281 281 282 282 283 283 281 279 278 278 274 273 271 268 268 269
264 265 265 266 266 267 268 271 273 274 277 277 276 276 276 276 277 276 276 280 280 279 280 278 278 279 278 278 279 281 282 282 282 281 280 279 279 278 277 275 272 269 268 268
266 265 266 266 267 268 268 270 273 273 275 277 277 276 279 279 279 280 281 282 282 281 280 279 279 279 279 278 278 279 280 281 281 281 281 281 281 280 277 275 273 269 268 267
Height
5868 5871 5873 5875 5877 5879 5880 5881 5882 5883 5884 5884 5885 5886 5887 5886 5886 5886 5886 5886 5887 5887 5887 5887 5886 5885 5884 5883 5882 5881 5880 5879 5879 5878 5877 5877 5875 5874 5873 5872 5871 5870 5869 5868
5866 5868 5870 5871 5873 5875 5876 5877 5878 5879 5880 5881 5881 5882 5883 5883 5883 5883 5884 5884 5884 5884 5884 5884 5884 5883 5882 5880 5879 5879 5878 5878 5877 5876 5875 5875 5874 5873 5872 5870 5869 5868 5867 5866
5861 5865 5866 5867 5869 5871 5872 5873 5875 5876 5877 5877 5878 5879 5879 5880 5880 5880 5881 5881 5882 5882 5881 5881 5881 5881 5880 5878 5877 5877 5876 5875 5875 5874 5873 5872 5872 5871 5870 5869 5868 5867 5866 5864
5858 5860 5862 5863 5865 5867 5869 5871 5872 5872 5873 5874 5875 5875 5876 5876 5877 5877 5877 5878 5878 5879 5879 5878 5878 5878 5877 5876 5875 5874 5873 5873 5872 5872 5871 5870 5869 5868 5867 5866 5865 5864 5863 5862
5854 5857 5858 5860 5862 5863 5865 5867 5868 5869 5869 5870 5871 5871 5873 5872 5873 5873 5874 5874 5875 5875 5875 5875 5875 5875 5874 5873 5872 5871 5870 5870 5869 5868 5868 5867 5866 5865 5864 5863 5862 5861 5860 5860
5851 5852 5854 5856 5858 5860 5861 5863 5864 5865 5866 5866 5867 5867 5868 5868 5868 5869 5869 5869 5870 5871 5871 5870 5871 5871 5870 5869 5869 5868 5867 5866 5866 5865 5864 5863 5862 5862 5861 5860 5859 5858 5857 5856
5847 5849 5850 5852 5854 5856 5857 5859 5860 5860 5861 5862 5863 5862 5863 5864 5864 5864 5864 5864 5865 5866 5866 5865 5866 5866 5865 5865 5865 5864 5863 5862 5861 5861 5860 5859 5858 5857 5857 5856 5855 5854 5853 5852
5843 5845 5847 5848 5850 5851 5853 5854 5856 5856 5856 5857 5858 5857 5859 5859 5859 5859 5859 5859 5860 5860 5861 5861 5860 5860 5861 5860 5860 5859 5858 5857 5857 5856 5855 5854 5853 5853 5852 5851 5850 5850 5849 5848
5839 5842 5843 5844 5846 5847 5848 5849 5851 5852 5851 5852 5852 5853 5853 5853 5854 5854 5854 5854 5855 5855 5855 5855 5855 5855 5855 5855 5854 5853 5853 5852 5851 5851 5850 5849 5848 5847 5847 5846 5845 5844 5844 5843
5834 5837 5838 5840 5842 5842 5844 5845 5846 5846 5846 5846 5847 5847 5848 5848 5848 5849 5848 5848 5848 5848 5848 5848 5848 5849 5849 5849 5849 5848 5847 5847 5846 5845 5844 5843 5843 5842 5841 5840 5840 5839 5838 5837
5830 5832 5834 5835 5836 5837 5839 5840 5840 5840 5841 5841 5841 5844 5842 5842 5843 5843 5842 5842 5842 5842 5841 5842 5842 5842 5842 5841 5842 5841 5841 5840 5839 5839 5838 5837 5836 5835 5835 5834 5834 5833 5832 5831
5825 5827 5828 5830 5832 5832 5833 5834 5835 5836 5836 5836 5836 5839 5836 5837 5837 5837 5837 5837 5836 5835 5834 5834 5835 5835 5835 5835 5834 5834 5834 5833 5833 5832 5831 5830 5830 5829 5828 5828 5827 5827 5826 5826
5821 5822 5823 5825 5828 5828 5827 5828 5829 5829 5830 5830 5830 5833 5830 5830 5830 5831 5831 5831 5830 5829 5828 5827 5828 5828 5829 5828 5828 5827 5826 5826 5825 5825 5824 5824 5823 5822 5822 5822 5821 5821 5820 5819
5816 5816 5818 5819 5820 5820 5821 5823 5823 5823 5823 5824 5824 5825 5825 5824 5824 5825 5825 5825 5825 5824 5822 5822 5822 5822 5822 5822 5822 5821 5820 5818 5818 5817 5817 5817 5816 5816 5815 5815 5814 5814 5813 5812
5810 5811 5812 5813 5813 5814 5815 5816 5817 5817 5817 5818 5818 5818 5818 5818 5818 5818 5818 5819 5818 5817 5817 5816 5816 5816 5815 5815 5815 5813 5812 5811 5810 5810 5809 5809 5809 5809 5808 5808 5807 5806 5806 5806
5805 5806 5807 5807 5808 5808 5809 5810 5810 5810 5810 5811 5811 5812 5812 5811 5811 5811 5812 5812 5811 5810 5810 5810 5810 5809 5808 5808 5807 5806 5805 5804 5802 5801 5801 5801 5801 5801 5800 5800 5799 5799 5799 5798
5799 5800 5801 5802 5802 5803 5803 5803 5803 5803 5803 5804 5804 5806 5805 5805 5805 5804 5805 5805 5805 5804 5803 5803 5802 5802 5801 5800 5799 5798 5797 5796 5795 5794 5794 5794 5794 5793 5793 5792 5792 5791 5791 5790
5793 5794 5795 5796 5797 5796 5799 5796 5796 5797 5797 5798 5798 5798 5798 5798 5798 5798 5798 5797 5797 5796 5795 5795 5794 5793 5792 5792 5791 5790 5789 5788 5788 5787 5786 5786 5785 5785 5785 5784 5784 5783 5783 5782
5788 5789 5789 5789 5789 5790 5791 5791 5790 5791 5791 5791 5791 5791 5791 5792 5792 5791 5790 5790 5789 5789 5788 5787 5786 5786 5784 5783 5783 5782 5781 5780 5779 5779 5778 5778 5777 5777 5776 5776 5776 5775 5775 5774
5782 5782 5783 5783 5783 5783 5785 5785 5784 5786 5785 5785 5785 5785 5784 5784 5784 5784 5783 5782 5782 5781 5780 5779 5778 5777 5777 5776 5775 5774 5773 5772 5772 5770 5769 5769 5769 5768 5768 5767 5767 5766 5766 5766
5776 5776 5776 5777 5776 5776 5778 5779 5779 5780 5780 5779 5778 5778 5778 5777 5777 5776 5775 5775 5774 5773 5772 5771 5770 5769 5769 5768 5767 5766 5765 5764 5763 5762 5761 5760 5760 5759 5759 5758 5758 5758 5757 5757
5769 5769 5770 5770 5771 5773 5772 5772 5773 5773 5772 5771 5771 5770 5770 5770 5769 5768 5768 5767 5766 5765 5764 5763 5762 5761 5760 5760 5759 5758 5757 5756 5755 5754 5752 5751 5751 5751 5750 5749 5749 5749 5748 5748
5762 5763 5763 5765 5766 5766 5765 5766 5766 5765 5765 5764 5763 5763 5763 5762 5762 5761 5761 5759 5758 5758 5757 5756 5755 5753 5752 5752 5751 5750 5749 5748 5747 5745 5744 5744 5743 5742 5741 5740 5740 5740 5740 5739
5756 5756 5757 5757 5758 5758 5759 5759 5758 5758 5757 5757 5756 5756 5756 5755 5754 5754 5753 5751 5750 5750 5749 5748 5747 5746 5744 5743 5743 5742 5741 5740 5740 5739 5737 5736 5735 5733 5732 5731 5731 5730 5731 5730
5750 5750 5750 5750 5751 5751 5751 5752 5752 5751 5751 5750 5749 5749 5748 5747 5746 5746 5745 5743 5742 5742 5741 5740 5739 5738 5737 5736 5735 5734 5733 5732 5731 5730 5729 5728 5726 5725 5723 5722 5722 5721 5721 5721
5743 5743 5743 5743 5744 5744 5745 5745 5745 5745 5744 5744 5743 5742 5741 5740 5739 5738 5736 5735 5734 5733 5733 5732 5731 5730 5729 5728 5727 5726 5725 5724 5723 5722 5721 5719 5717 5715 5714 5713 5713 5712 5712 5712